When you browse on this site, cookies collect data to enhance your experience and personalize the content and advertising you see.
Visit our Privacy Policy to learn more. By continuing to use the site, you agree to this use of cookies and data.
EN

Hourly Weather Szombathely

Today, 10 July, Friday

Time Temperature Precipitation Wind Pressure Humidity
00:00 +19°C° 0 mm 2 mps 743 mmHg 76%
01:00 +18°C° 0 mm 2 mps 743 mmHg 80%
02:00 +18°C° 0 mm 2 mps 743 mmHg 81%
03:00 +18°C° 0 mm 2 mps 743 mmHg 83%
04:00 +17°C° 0 mm 2 mps 743 mmHg 85%
05:00 +19°C° 0 mm 2 mps 743 mmHg 80%
06:00 +21°C° 0 mm 2 mps 743 mmHg 75%
07:00 +23°C° 0 mm 2 mps 743 mmHg 71%
08:00 +25°C° 0 mm 2 mps 743 mmHg 65%
09:00 +27°C° 0 mm 3 mps 743 mmHg 59%
10:00 +29°C° 0 mm 3 mps 743 mmHg 53%
11:00 +30°C° 0 mm 3 mps 743 mmHg 50%
12:00 +32°C° 0 mm 4 mps 742 mmHg 46%
13:00 +33°C° 0 mm 4 mps 742 mmHg 43%
14:00 +33°C° 0 mm 4 mps 742 mmHg 43%
15:00 +33°C° 0 mm 4 mps 741 mmHg 43%
16:00 +33°C° 0 mm 4 mps 741 mmHg 42%
17:00 +32°C° 0 mm 4 mps 741 mmHg 49%
18:00 +29°C° 0 mm 3 mps 740 mmHg 56%
19:00 +27°C° 0 mm 2 mps 740 mmHg 62%
20:00 +26°C° 0 mm 2 mps 740 mmHg 66%
21:00 +24°C° 0 mm 2 mps 741 mmHg 70%
22:00 +23°C° 0 mm 2 mps 741 mmHg 74%
23:00 +21°C° 0 mm 3 mps 741 mmHg 77%

Tomorrow, 11 July, Saturday

Time Temperature Precipitation Wind Pressure Humidity
00:00 +21°C° 0 mm 4 mps 742 mmHg 80%
01:00 +21°C° 0 mm 4 mps 742 mmHg 83%
02:00 +20°C° 0 mm 4 mps 742 mmHg 84%
03:00 +20°C° 0 mm 4 mps 742 mmHg 85%
04:00 +20°C° 0 mm 4 mps 742 mmHg 86%
05:00 +21°C° 0 mm 4 mps 742 mmHg 81%
06:00 +22°C° 0 mm 4 mps 742 mmHg 76%
07:00 +23°C° 0 mm 5 mps 742 mmHg 71%
08:00 +25°C° 0 mm 5 mps 743 mmHg 68%
09:00 +26°C° 0 mm 6 mps 743 mmHg 65%
10:00 +27°C° 0 mm 6 mps 743 mmHg 62%
11:00 +24°C° 0.2 mm 7 mps 743 mmHg 66%
12:00 +23°C° 0.2 mm 8 mps 743 mmHg 69%
13:00 +22°C° 0.2 mm 9 mps 743 mmHg 73%
14:00 +19°C° 0.1 mm 9 mps 744 mmHg 74%
15:00 +18°C° 0.1 mm 8 mps 744 mmHg 75%
16:00 +17°C° 0.1 mm 8 mps 744 mmHg 77%
17:00 +16°C° 1.4 mm 7 mps 745 mmHg 82%
18:00 +15°C° 1.4 mm 6 mps 745 mmHg 87%
19:00 +15°C° 1.4 mm 5 mps 745 mmHg 92%
20:00 +14°C° 0.4 mm 5 mps 746 mmHg 93%
21:00 +14°C° 0.4 mm 5 mps 746 mmHg 93%
22:00 +14°C° 0.4 mm 4 mps 747 mmHg 93%
23:00 +14°C° 0 mm 4 mps 747 mmHg 92%

Day after tomorrow, 12 July, Sunday

Time Temperature Precipitation Wind Pressure Humidity
00:00 +14°C° 0 mm 4 mps 747 mmHg 91%
01:00 +14°C° 0 mm 4 mps 747 mmHg 89%
02:00 +13°C° 0 mm 4 mps 747 mmHg 88%
03:00 +13°C° 0 mm 4 mps 747 mmHg 87%
04:00 +12°C° 0 mm 4 mps 747 mmHg 86%
05:00 +14°C° 0 mm 5 mps 747 mmHg 81%
06:00 +15°C° 0 mm 5 mps 747 mmHg 76%
07:00 +16°C° 0 mm 6 mps 748 mmHg 71%
08:00 +17°C° 0 mm 6 mps 748 mmHg 63%
09:00 +18°C° 0 mm 7 mps 748 mmHg 56%
10:00 +21°C° 0 mm 7 mps 748 mmHg 48%
11:00 +21°C° 0 mm 7 mps 748 mmHg 47%
12:00 +22°C° 0 mm 7 mps 748 mmHg 45%
13:00 +23°C° 0 mm 6 mps 748 mmHg 43%
14:00 +23°C° 0 mm 6 mps 748 mmHg 44%
15:00 +23°C° 0 mm 6 mps 748 mmHg 44%
16:00 +23°C° 0 mm 6 mps 747 mmHg 45%
17:00 +21°C° 0 mm 5 mps 747 mmHg 51%
18:00 +20°C° 0 mm 4 mps 748 mmHg 57%
19:00 +19°C° 0 mm 3 mps 748 mmHg 63%
20:00 +17°C° 0 mm 3 mps 748 mmHg 67%
21:00 +16°C° 0 mm 3 mps 748 mmHg 71%
22:00 +15°C° 0 mm 2 mps 748 mmHg 74%
23:00 +14°C° 0 mm 2 mps 748 mmHg 76%

13 July, Monday

Time Temperature Precipitation Wind Pressure Humidity
00:00 +14°C° 0 mm 2 mps 748 mmHg 78%
01:00 +13°C° 0 mm 2 mps 748 mmHg 79%
02:00 +13°C° 0 mm 2 mps 748 mmHg 81%
03:00 +13°C° 0 mm 2 mps 748 mmHg 82%
04:00 +12°C° 0 mm 2 mps 748 mmHg 83%
05:00 +13°C° 0 mm 3 mps 748 mmHg 77%
06:00 +16°C° 0 mm 3 mps 748 mmHg 71%
07:00 +17°C° 0 mm 3 mps 748 mmHg 65%
08:00 +19°C° 0 mm 4 mps 748 mmHg 59%
09:00 +20°C° 0 mm 4 mps 748 mmHg 52%
10:00 +22°C° 0 mm 4 mps 748 mmHg 46%
11:00 +22°C° 0 mm 4 mps 747 mmHg 43%
12:00 +23°C° 0 mm 4 mps 747 mmHg 41%
13:00 +25°C° 0 mm 3 mps 747 mmHg 38%
14:00 +25°C° 0 mm 3 mps 746 mmHg 39%
15:00 +25°C° 0 mm 3 mps 746 mmHg 39%
16:00 +25°C° 0 mm 3 mps 745 mmHg 40%
17:00 +22°C° 0 mm 3 mps 745 mmHg 47%
18:00 +21°C° 0 mm 3 mps 745 mmHg 54%
19:00 +19°C° 0 mm 2 mps 745 mmHg 61%
20:00 +18°C° 0 mm 2 mps 745 mmHg 65%
21:00 +16°C° 0 mm 2 mps 745 mmHg 69%
22:00 +15°C° 0 mm 2 mps 746 mmHg 74%
23:00 +15°C° 0 mm 2 mps 746 mmHg 75%

14 July, Tuesday

Time Temperature Precipitation Wind Pressure Humidity
00:00 +14°C° 0 mm 1 mps 746 mmHg 76%
01:00 +14°C° 0 mm 1 mps 746 mmHg 77%
02:00 +13°C° 0 mm 1 mps 745 mmHg 78%
03:00 +13°C° 0 mm 1 mps 745 mmHg 79%
04:00 +13°C° 0 mm 1 mps 745 mmHg 80%
05:00 +15°C° 0 mm 1 mps 745 mmHg 75%
06:00 +16°C° 0 mm 1 mps 745 mmHg 70%
07:00 +19°C° 0 mm 1 mps 745 mmHg 65%
08:00 +20°C° 0 mm 1 mps 745 mmHg 59%
09:00 +21°C° 0 mm 2 mps 745 mmHg 54%
10:00 +23°C° 0 mm 2 mps 745 mmHg 48%
11:00 +24°C° 0 mm 1 mps 744 mmHg 46%
12:00 +25°C° 0 mm 1 mps 744 mmHg 43%
13:00 +26°C° 0 mm 1 mps 744 mmHg 40%
14:00 +26°C° 0 mm 1 mps 743 mmHg 40%
15:00 +26°C° 0 mm 1 mps 743 mmHg 39%
16:00 +26°C° 0 mm 1 mps 742 mmHg 38%
17:00 +25°C° 0 mm 1 mps 742 mmHg 44%
18:00 +23°C° 0 mm 1 mps 742 mmHg 51%
19:00 +22°C° 0 mm 1 mps 742 mmHg 57%
20:00 +20°C° 0 mm 1 mps 742 mmHg 61%
21:00 +19°C° 0 mm 1 mps 742 mmHg 65%
22:00 +18°C° 0 mm 1 mps 743 mmHg 69%
23:00 +16°C° 0 mm 2 mps 743 mmHg 71%

15 July, Wednesday

Time Temperature Precipitation Wind Pressure Humidity
00:00 +16°C° 0 mm 2 mps 742 mmHg 73%
01:00 +15°C° 0 mm 2 mps 742 mmHg 75%
02:00 +15°C° 0 mm 2 mps 742 mmHg 76%
03:00 +15°C° 0 mm 2 mps 742 mmHg 77%
04:00 +14°C° 0 mm 2 mps 742 mmHg 78%
05:00 +16°C° 0 mm 2 mps 742 mmHg 75%
06:00 +17°C° 0 mm 2 mps 742 mmHg 72%
07:00 +18°C° 0 mm 2 mps 743 mmHg 68%
08:00 +20°C° 0 mm 3 mps 743 mmHg 63%
09:00 +22°C° 0 mm 3 mps 743 mmHg 57%
10:00 +24°C° 0 mm 3 mps 743 mmHg 51%
11:00 +25°C° 0 mm 3 mps 743 mmHg 48%
12:00 +26°C° 0 mm 3 mps 743 mmHg 46%
13:00 +27°C° 0 mm 4 mps 742 mmHg 43%
14:00 +28°C° 0 mm 3 mps 742 mmHg 43%
15:00 +28°C° 0 mm 3 mps 742 mmHg 42%
16:00 +28°C° 0 mm 2 mps 742 mmHg 42%
17:00 +26°C° 0 mm 2 mps 742 mmHg 48%
18:00 +25°C° 0 mm 2 mps 741 mmHg 54%
19:00 +23°C° 0 mm 1 mps 741 mmHg 60%
20:00 +22°C° 0 mm 1 mps 742 mmHg 63%
21:00 +21°C° 0 mm 1 mps 742 mmHg 65%
22:00 +20°C° 0 mm 1 mps 742 mmHg 67%
23:00 +20°C° 0 mm 1 mps 742 mmHg 68%
Show more